Location: Sedan
(39.2354°N, 78.5718°W)
Time: 13:23:30
(UTC+00:00)

Envisat - Pass Details

Date: 11 December 2021
Orbit: 764 x 766 km, 98.2° (Epoch: 19 January)

Event Time Altitude Azimuth Distance (km) Brightness Sun altitude
Rises 09:33:45 0° 22° (NNE) 3,239 6.4 -32.1°
Reaches altitude 10° 09:36:15 10° 31° (NNE) 2,308 5.7 -31.6°
Maximum altitude 09:40:54 36° 97° (E) 1,207 4.4 -30.7°
Drops below altitude 10° 09:45:31 10° 163° (SSE) 2,292 5.7 -29.8°
Sets 09:47:59 0° 172° (S) 3,213 6.4 -29.4°
